Theta_e
354 355 356 356 354 354 354 353 354 354 355 354 353 353 351 351 353 353 353 353 352 352 352 352 351 351 350 352 351 350 350 350 350 349 349 351 351 344 341 342 342 342 341 341 342 343 343 344 345 344 344 344 344 344 343 343 343 343 343 343 343 343 343 343 343 343 343 343 343 344 344 343 342 342 342 342 342 342 342 342 342 343 343 344 343
354 356 356 356 355 355 354 354 355 355 355 355 353 353 352 352 353 352 353 353 352 352 352 351 350 351 352 351 351 350 350 350 350 350 350 350 352 348 343 343 343 342 341 340 342 344 344 344 345 344 344 344 344 345 344 344 344 344 344 344 343 344 344 344 343 344 344 344 344 343 343 343 343 343 342 343 342 343 343 343 343 343 344 343 343
356 357 357 356 355 355 355 354 355 355 354 355 355 354 353 353 354 353 353 353 353 353 353 352 351 352 352 351 351 351 350 350 350 350 351 350 351 351 347 344 343 344 343 341 341 343 344 344 344 344 344 344 345 345 345 345 345 346 345 344 345 345 344 344 344 344 345 344 344 343 343 343 343 343 342 343 343 343 343 344 344 343 343 343 344
357 358 357 356 356 356 355 355 355 354 354 355 356 355 355 355 356 357 356 354 354 354 353 351 352 351 351 351 350 351 350 351 350 350 352 351 351 352 351 349 345 344 344 343 342 342 343 344 344 344 344 344 344 344 345 345 345 346 346 346 346 345 345 344 345 344 344 344 344 343 344 343 343 343 343 343 343 344 344 344 344 344 344 344 344
358 358 358 357 356 356 356 355 355 355 355 357 358 357 356 356 358 358 357 356 354 354 353 350 350 351 350 350 350 351 351 351 351 352 352 351 351 350 351 353 351 347 345 345 344 344 345 345 345 344 344 343 343 344 345 345 346 345 345 346 345 345 344 345 345 345 345 345 344 344 344 344 344 344 344 344 344 344 344 344 345 345 345 345 345
359 360 359 357 357 357 357 356 356 356 356 358 358 356 356 356 357 357 355 354 353 353 353 350 351 352 350 350 351 350 351 350 350 351 352 352 352 350 349 351 353 352 350 347 345 345 345 346 346 345 346 346 346 346 346 346 346 346 346 346 346 345 346 346 345 345 345 345 345 345 346 345 346 345 345 346 346 345 345 345 345 345 345 345 345
358 360 360 358 357 357 357 357 358 357 356 358 357 356 357 357 356 354 351 350 349 349 350 350 350 351 351 350 351 350 350 350 350 350 352 353 353 351 350 349 350 352 353 351 348 346 345 345 346 345 345 346 346 347 348 348 347 346 346 346 346 346 346 346 346 345 346 345 346 346 346 346 346 346 346 346 346 346 346 345 345 345 345 345 345
355 358 360 359 357 357 357 358 359 358 358 358 357 357 357 358 356 353 351 348 346 344 345 346 348 349 350 349 349 350 350 350 350 350 351 353 353 352 352 351 350 350 352 352 351 349 346 344 345 345 346 346 346 347 348 348 347 346 346 347 347 346 347 347 346 346 346 346 346 346 346 346 346 345 345 345 345 346 345 345 345 344 344 344 344
356 356 360 359 358 357 357 359 359 359 360 359 357 356 357 358 357 353 350 347 342 340 341 342 344 346 346 346 346 348 349 350 350 350 351 353 353 353 353 352 351 350 351 353 353 352 348 345 344 343 344 345 346 346 347 348 347 347 347 347 347 347 347 347 347 346 346 347 346 346 346 346 346 345 345 344 344 344 343 343 342 342 343 342 342
357 356 360 360 358 358 358 359 360 361 360 359 358 357 357 357 356 352 349 345 341 340 340 341 343 343 342 344 346 347 347 349 350 351 352 353 352 353 353 353 352 352 353 353 353 353 351 349 347 346 345 345 345 345 346 347 347 347 347 347 347 348 348 348 347 346 347 346 346 346 346 345 345 344 343 342 342 341 340 340 340 340 341 341 341
358 357 361 361 359 359 358 358 359 361 360 359 358 357 357 358 356 352 350 347 344 343 341 342 342 341 342 343 346 348 347 348 349 351 351 351 351 352 352 353 353 353 353 353 353 353 352 351 351 351 350 348 345 344 344 345 346 347 347 346 347 347 347 348 347 347 346 346 345 346 345 345 344 342 339 336 335 333 334 334 332 335 336 336 336
358 360 362 361 360 360 359 358 358 358 359 359 359 357 357 359 357 352 349 346 344 343 342 342 341 343 344 344 346 349 348 349 348 349 350 351 351 352 352 352 352 353 352 353 353 352 352 352 351 351 350 349 347 343 342 342 344 345 346 346 346 347 347 347 347 346 345 345 345 345 343 340 337 334 329 324 321 321 322 321 320 327 331 328 325
358 359 360 361 361 361 361 361 360 358 359 358 358 358 357 358 358 352 348 345 342 342 342 342 343 343 345 343 345 346 346 348 347 346 349 350 351 351 351 351 351 351 352 352 351 350 350 350 349 348 348 349 348 347 345 343 343 343 343 344 345 346 346 347 346 345 344 344 344 341 335 328 323 321 319 316 316 315 316 316 315 321 323 319 317
357 358 359 359 359 361 360 362 362 357 357 359 357 358 358 358 357 351 348 346 343 343 343 343 342 341 341 342 343 343 344 345 345 345 346 348 349 350 350 350 349 349 349 349 349 348 347 347 347 347 348 348 348 348 348 347 346 344 341 341 342 343 344 345 346 346 344 344 343 334 323 318 316 316 317 316 316 315 315 316 315 316 317 316 316
358 358 357 358 358 360 359 361 363 357 355 359 359 359 359 359 357 351 347 345 343 344 345 343 342 340 341 342 342 343 345 345 343 342 343 346 347 347 349 349 348 348 348 347 347 347 346 347 348 348 348 348 348 348 348 348 347 344 339 337 337 338 340 342 345 346 345 345 340 326 316 316 317 317 317 317 316 316 316 316 316 316 316 316 316
359 358 358 358 359 360 358 359 362 360 359 361 361 359 359 359 357 353 348 344 342 343 344 344 344 343 342 343 343 343 344 344 343 342 342 345 346 345 346 346 346 347 346 346 346 347 347 347 348 349 348 348 348 348 348 348 347 345 341 337 333 331 332 336 341 344 344 344 335 319 316 317 317 317 317 318 318 317 317 317 317 317 317 317 316
359 359 358 359 359 359 359 357 359 361 361 361 360 358 357 357 356 354 350 345 343 342 343 344 345 345 344 344 344 344 343 341 343 345 343 344 344 344 344 345 346 346 346 346 346 346 346 347 348 349 349 349 349 347 347 348 347 348 347 343 335 328 326 329 335 338 341 341 330 316 317 318 317 318 317 318 318 318 318 318 318 318 318 317 317
359 360 359 359 359 359 358 357 357 358 358 359 361 358 356 355 356 356 351 345 344 344 343 344 345 346 344 343 344 343 343 343 345 346 345 345 344 343 343 344 344 345 346 346 346 347 346 346 347 348 350 349 350 348 347 349 348 348 348 348 339 326 320 323 328 332 335 335 326 317 318 318 318 319 319 319 319 319 319 319 319 320 320 319 319
359 361 360 359 359 359 358 357 356 357 356 357 360 359 357 357 357 357 352 347 345 344 344 344 345 345 343 344 344 344 345 345 346 346 347 346 344 344 343 343 344 344 345 345 344 346 345 346 346 347 348 349 350 349 348 348 347 344 342 341 336 323 318 320 322 324 326 324 320 317 318 319 320 320 321 320 320 320 320 319 320 321 321 321 321
360 361 361 360 359 359 358 358 357 357 356 356 357 358 359 360 359 357 354 351 348 345 344 344 343 344 344 344 344 345 346 346 346 346 347 346 345 344 343 343 342 342 343 344 343 344 345 346 345 345 347 348 349 349 348 348 347 346 341 332 328 323 317 318 319 319 319 318 317 318 320 321 321 322 322 322 322 321 321 321 322 322 322 322 323
360 361 361 360 359 359 358 358 358 357 356 353 354 357 360 361 361 358 355 353 351 348 346 344 342 343 345 347 346 347 347 347 347 347 347 347 345 345 345 344 343 344 343 343 343 344 344 346 345 345 345 347 349 349 349 348 347 349 343 329 322 321 318 319 319 318 318 318 319 321 322 323 323 323 322 323 323 323 322 322 322 322 323 322 323
360 360 360 360 359 359 358 358 358 357 357 355 354 356 358 359 359 359 357 355 353 351 348 346 345 344 346 348 348 348 349 349 348 348 347 348 346 345 344 345 345 345 345 345 344 344 343 344 345 345 345 345 348 348 348 349 348 347 342 330 324 322 320 320 319 319 320 320 321 323 324 324 324 324 323 324 323 323 324 323 323 324 323 323 323
359 359 360 360 359 359 358 357 357 357 358 357 356 355 356 357 357 358 358 357 355 354 351 350 349 348 347 348 348 348 348 349 348 348 349 349 348 347 344 345 345 344 345 346 346 344 343 344 344 345 345 345 346 347 349 349 346 340 336 333 330 327 323 322 322 321 321 321 323 324 325 326 326 326 326 325 325 324 324 324 324 324 324 323 324
358 359 359 359 359 360 359 358 358 358 359 358 357 355 355 355 356 357 358 358 357 356 354 353 351 351 349 348 348 347 347 347 346 347 348 349 349 348 345 345 345 344 343 345 345 343 343 343 343 344 344 346 347 348 350 350 347 340 334 334 334 332 330 328 327 326 325 324 324 325 326 326 326 327 327 327 327 326 326 326 325 325 325 324 325
358 359 359 359 359 360 360 359 359 359 358 358 358 357 356 356 356 357 357 358 358 357 356 355 353 352 351 348 348 347 346 346 346 346 346 348 349 349 347 346 347 346 345 347 348 344 343 342 343 343 345 346 349 350 350 349 348 344 338 336 335 334 334 333 333 332 331 330 330 328 328 327 327 327 328 328 328 327 327 327 327 327 326 326 326
359 359 359 358 359 361 360 360 360 359 358 358 358 359 359 357 357 358 358 358 358 358 357 356 355 353 352 351 350 348 347 346 346 346 344 345 347 347 348 349 348 346 345 348 350 348 344 343 344 344 346 347 348 352 352 350 348 346 341 339 338 336 334 335 335 335 334 334 333 333 332 331 330 329 330 330 329 329 328 328 328 328 328 327 327
357 358 359 359 359 361 361 360 360 359 358 357 358 359 360 359 358 358 358 358 359 359 358 357 356 356 354 353 353 352 350 348 347 346 346 345 344 345 349 349 349 348 347 345 348 349 346 344 343 344 346 347 347 348 348 346 346 344 339 337 338 338 336 335 336 335 335 335 335 335 334 334 333 332 332 333 333 332 331 331 330 329 329 329 328
358 359 360 360 360 361 361 361 360 359 357 357 358 359 360 360 359 359 359 358 359 361 359 358 357 357 356 356 356 354 353 351 349 349 348 347 347 347 348 349 349 350 348 347 347 347 345 343 344 346 346 344 344 344 340 339 342 340 337 337 337 339 339 336 335 336 336 336 336 335 335 335 335 334 334 333 334 334 334 334 334 332 332 331 330
358 359 360 360 360 360 360 360 360 360 359 358 358 359 360 361 360 360 359 357 359 361 360 360 358 358 357 357 357 357 355 354 353 352 351 351 349 348 349 349 349 349 348 348 348 346 344 343 344 348 349 344 342 345 343 344 345 340 341 343 343 344 344 339 337 337 336 336 336 336 336 336 335 335 335 335 334 334 334 335 335 335 334 333 333
358 359 359 360 360 360 359 359 359 360 360 359 359 360 360 360 360 361 360 358 359 360 361 360 359 358 358 358 357 357 357 356 355 353 354 354 352 348 348 348 348 350 349 348 348 347 346 346 343 346 350 347 345 347 347 347 347 343 342 345 345 346 345 341 337 336 336 337 336 337 337 336 336 336 336 336 335 335 335 335 335 335 335 335 335
359 359 359 359 360 360 359 358 358 359 360 358 359 360 359 359 359 360 360 360 361 361 360 360 359 359 360 360 359 358 358 357 356 355 355 356 354 350 349 350 349 350 350 350 349 348 347 346 346 345 347 347 347 347 347 347 347 344 343 344 344 343 341 339 339 338 337 337 337 336 337 337 337 337 337 337 336 336 335 335 335 335 335 336 336
359 360 360 358 358 359 358 356 356 357 359 358 359 359 359 360 359 358 359 360 362 361 360 359 359 360 361 362 360 360 359 358 357 357 357 357 357 354 352 353 352 352 352 352 351 352 350 348 348 348 348 348 348 348 348 348 348 348 347 347 346 345 343 344 343 342 341 340 339 338 337 337 336 336 336 337 337 337 336 336 335 335 335 335 336
359 360 360 358 358 359 358 357 357 356 358 359 358 359 360 359 360 359 360 361 362 361 361 359 360 361 362 362 362 362 361 360 359 358 358 358 358 357 356 356 355 355 354 354 354 354 353 352 352 351 351 351 351 350 350 350 350 350 350 349 349 349 349 348 348 347 345 343 341 340 340 340 339 338 338 337 337 337 337 337 337 336 336 335 335
359 359 360 359 359 359 359 358 359 358 358 361 359 359 359 361 360 359 359 362 362 361 361 362 361 361 362 363 362 361 361 361 360 359 357 357 357 357 358 357 357 356 356 356 356 356 356 355 354 354 354 355 355 355 354 354 353 352 351 351 351 351 352 351 350 349 347 345 344 343 342 342 342 341 341 339 339 338 338 338 338 337 337 336 335
360 359 358 359 360 360 360 359 360 360 361 361 360 359 360 362 361 359 359 361 362 361 362 363 362 361 362 363 362 361 361 361 362 360 358 357 357 356 357 357 357 357 357 358 358 358 358 357 356 355 354 354 355 355 355 355 355 354 353 352 351 352 351 351 350 350 348 348 347 346 346 344 344 344 343 342 342 341 340 339 338 337 337 337 336
360 359 359 359 360 361 361 361 361 362 362 362 361 361 361 362 363 361 359 360 362 362 362 362 362 362 362 362 362 359 360 362 363 361 360 359 359 358 358 358 359 359 359 359 360 359 359 358 359 358 357 357 357 357 357 357 357 356 354 353 353 352 351 350 351 350 350 350 349 349 348 347 347 346 346 346 345 344 342 341 340 338 338 337 337
359 360 360 359 361 362 362 361 361 362 362 363 362 361 360 362 363 362 360 360 361 363 363 362 363 362 362 362 362 361 361 362 362 362 362 362 362 361 360 360 360 361 360 359 359 358 357 357 358 359 358 358 358 359 358 358 358 358 358 356 354 354 353 352 352 352 352 351 350 350 349 348 348 348 348 348 348 347 346 345 343 341 340 339 338
358 360 361 360 361 362 363 362 362 363 362 363 362 362 359 360 362 362 360 360 362 362 362 361 362 362 362 362 362 362 362 362 362 362 362 364 363 362 361 361 361 360 358 358 358 357 356 356 357 357 358 358 358 357 357 357 358 358 359 358 358 356 354 354 354 353 353 352 352 351 350 350 349 349 348 349 349 348 348 348 347 345 344 342 339
357 358 360 361 361 361 362 362 362 363 363 363 362 362 361 359 361 362 360 359 361 362 362 361 361 360 361 362 363 362 363 363 362 363 363 364 363 363 362 362 362 360 359 359 358 357 356 357 356 357 358 357 357 356 356 355 355 356 358 358 359 358 357 355 354 354 354 353 353 353 352 351 350 350 349 349 349 349 348 348 349 349 348 346 343
358 357 358 360 362 361 362 362 362 362 363 363 362 362 362 360 359 361 361 359 358 360 362 361 360 359 359 360 361 361 363 363 362 363 363 363 363 363 363 363 361 360 360 359 359 357 357 356 357 356 356 356 356 355 355 355 356 358 359 360 360 359 358 356 356 355 355 354 353 353 352 353 352 352 351 350 350 350 349 349 349 349 349 349 348
359 357 358 359 361 362 362 362 362 362 362 363 363 362 362 361 359 359 361 361 360 359 360 361 360 359 358 357 356 358 360 362 361 360 359 359 359 360 363 364 363 361 359 358 357 357 357 356 356 355 355 355 355 356 356 357 358 360 360 360 360 359 358 357 356 355 355 354 354 354 354 355 354 352 352 352 352 352 351 351 351 350 349 349 349
359 359 359 359 359 360 362 363 362 362 361 362 362 361 360 361 361 360 360 361 361 360 360 360 360 359 358 356 355 356 358 359 357 353 352 352 352 352 355 359 361 361 360 359 358 357 357 357 356 356 356 356 357 358 358 359 360 361 361 360 360 359 358 356 356 355 354 355 355 355 355 355 354 354 352 353 352 352 353 352 351 351 350 349 349
361 360 361 360 359 359 361 362 363 362 362 362 361 359 356 356 358 360 360 360 361 362 360 360 360 358 357 356 356 356 358 359 356 352 351 350 350 348 347 350 354 357 359 359 359 358 357 358 358 358 358 359 360 360 361 360 360 360 359 357 357 356 355 354 355 355 355 355 356 355 355 354 354 354 354 353 352 351 352 351 349 349 350 349 348
362 362 362 361 361 360 360 362 362 362 362 361 360 358 355 353 352 356 360 361 361 362 361 360 359 358 357 357 355 355 358 360 360 360 358 355 352 350 349 349 351 353 355 357 358 358 358 359 359 360 359 360 360 361 361 361 360 358 356 355 354 353 353 354 355 355 355 356 355 355 354 353 352 353 353 353 352 351 351 350 349 348 348 348 348
363 363 362 362 362 361 361 361 361 361 362 362 360 357 355 353 350 352 356 359 360 361 361 360 359 360 360 359 358 357 357 358 360 362 362 361 358 357 356 356 356 356 357 357 357 357 358 358 359 360 360 360 360 361 360 360 359 357 355 354 353 353 353 355 355 354 354 354 354 354 352 350 350 351 350 351 351 350 350 350 349 348 348 348 347
364 364 363 363 363 362 362 362 362 361 362 362 361 358 355 353 351 350 353 356 358 359 361 362 361 360 362 362 362 361 360 359 361 362 363 364 364 363 363 362 361 361 361 361 359 359 359 358 359 360 359 360 360 360 360 359 357 355 354 354 354 355 354 353 353 352 350 349 351 352 351 349 348 348 348 350 350 349 349 350 349 349 348 348 347
364 364 364 363 364 364 363 363 362 362 361 361 360 359 357 354 352 351 353 355 357 358 360 362 362 362 362 363 364 363 362 363 363 363 364 365 366 366 365 364 364 363 362 361 360 359 359 358 358 358 359 359 359 359 357 356 354 353 352 352 353 352 351 349 349 349 348 347 348 350 350 347 347 348 348 347 348 348 347 347 348 348 348 347 347
364 364 364 363 364 363 363 363 362 361 362 360 360 359 358 356 354 353 353 356 357 358 360 361 362 362 363 364 364 364 363 364 363 362 362 363 364 364 364 364 364 362 361 360 359 359 359 360 359 359 359 359 359 358 356 354 354 353 350 349 349 349 349 348 348 349 348 347 347 348 348 347 346 346 346 346 346 346 346 346 347 347 346 347 348
362 363 363 363 363 363 363 363 363 362 362 361 360 358 357 357 355 354 354 357 358 359 360 361 362 362 362 363 364 364 363 364 364 362 361 360 361 362 363 363 362 361 360 359 359 359 359 359 360 359 359 359 359 358 355 352 349 348 347 348 347 347 347 348 348 346 345 345 344 345 346 347 346 345 345 346 346 345 345 346 345 346 346 346 346
362 362 364 364 363 363 363 363 363 363 363 362 361 359 358 356 356 355 356 358 359 360 360 361 362 362 362 361 361 362 364 365 364 363 362 360 361 362 361 360 360 360 359 359 359 360 361 361 361 360 359 359 357 354 350 346 341 339 342 345 345 345 345 346 345 344 343 343 342 343 345 346 345 345 345 344 345 344 345 345 344 345 346 346 347
361 361 363 363 363 364 362 362 362 362 362 363 361 360 359 357 356 356 357 359 359 359 361 361 362 363 363 363 362 360 361 362 362 362 361 360 360 361 360 359 359 359 359 360 361 362 362 361 361 360 359 358 354 349 347 344 342 341 343 344 344 344 344 342 341 341 340 339 339 341 343 343 343 342 342 342 342 342 342 342 343 343 344 345 346
Wind_Speed
5 6 6 6 5 5 5 5 6 5 5 8 8 8 8 8 7 7 8 9 8 8 7 7 7 6 6 5 5 4 5 5 5 5 6 6 6 6 6 6 6 5 4 4 4 4 4 4 3 4 4 4 4 4 3 3 3 3 2 2 1 1 1 2 2 2 2 3 3 3 4 4 4 5 5 5 6 6 7 7 8 8 8 8 9
5 5 5 5 5 5 5 5 6 5 6 7 6 6 7 6 6 7 8 8 8 7 7 7 7 6 6 5 5 5 5 5 5 5 5 6 6 5 4 4 5 4 4 3 4 4 3 3 3 3 3 3 3 2 2 2 1 1 1 0 0 1 1 1 2 2 2 3 3 3 4 4 5 5 5 6 6 7 7 8 8 9 9 9 9
5 5 5 5 4 4 5 4 5 6 5 6 5 5 6 5 5 6 7 7 8 7 7 7 7 7 6 6 5 5 4 4 4 5 5 5 6 5 4 3 4 4 4 4 3 4 4 3 3 3 2 2 2 1 1 1 0 1 1 2 2 2 2 2 3 3 3 3 4 4 4 5 6 6 6 6 7 7 8 8 9 9 9 10 10
4 4 4 4 4 4 4 4 5 5 5 5 4 4 4 5 5 5 6 7 7 7 7 7 7 7 7 6 6 5 4 4 4 4 4 4 5 5 4 3 3 3 4 4 3 3 4 3 2 2 2 1 1 1 0 0 1 1 2 2 2 3 3 3 4 4 4 4 5 5 6 6 7 7 7 7 8 8 8 9 9 9 10 10 10
3 3 3 3 4 4 4 4 5 5 4 4 3 3 3 4 4 5 6 6 7 7 7 7 8 7 7 6 6 5 5 4 4 4 4 4 4 4 5 4 3 2 2 3 4 4 3 3 2 2 1 1 0 0 0 1 1 2 2 2 3 3 3 3 4 4 4 5 6 6 6 7 7 7 7 8 8 8 8 9 9 9 9 9 9
3 3 2 2 3 3 3 4 4 4 4 3 3 3 3 3 4 4 5 6 6 6 6 7 7 7 7 6 6 5 5 4 4 4 4 3 3 3 4 4 4 3 2 2 3 3 3 3 3 2 2 1 1 1 1 1 2 2 2 3 4 4 4 4 4 5 5 5 6 6 6 6 7 7 7 7 8 8 8 8 8 8 8 8 8
4 3 2 2 2 3 3 4 4 3 4 3 3 3 2 2 3 3 4 5 5 6 5 6 6 6 6 6 5 5 4 4 4 4 4 3 3 3 3 3 3 3 3 2 2 2 2 2 2 2 3 3 3 3 3 3 4 4 4 5 5 5 5 5 5 5 6 6 6 6 6 6 6 7 7 7 7 7 7 7 7 7 7 7 7
4 3 2 1 2 3 3 3 3 3 4 3 3 3 2 2 3 3 4 3 3 4 5 5 5 5 5 5 5 4 4 4 4 4 4 3 3 2 2 2 2 2 2 2 1 1 1 1 1 2 2 3 3 3 4 4 4 4 5 6 5 5 6 6 6 6 6 6 6 6 6 6 6 6 6 6 6 6 6 6 6 7 6 6 7
4 3 2 1 1 2 3 3 3 3 3 3 3 3 2 2 3 3 3 2 2 3 4 4 5 4 4 5 4 4 3 3 4 4 3 2 2 3 2 2 2 1 2 1 1 1 1 1 1 2 2 2 3 3 4 4 4 4 5 5 5 5 5 5 6 5 5 5 5 5 5 5 6 6 6 6 6 6 6 6 6 6 5 5 6
5 4 2 1 1 2 2 3 3 3 3 2 3 3 2 2 2 2 2 2 2 3 3 3 3 4 4 4 3 3 3 3 3 3 3 2 2 2 2 2 2 2 2 2 2 2 2 1 1 2 2 2 2 3 4 4 4 4 4 4 4 4 4 4 4 4 4 4 5 5 5 5 5 6 6 5 5 6 6 5 5 5 4 4 4
5 4 3 1 1 2 2 2 3 3 2 2 3 3 2 2 1 2 2 2 2 3 3 2 2 3 3 3 3 2 2 2 2 2 1 1 2 2 2 3 3 2 2 2 2 2 2 2 1 2 3 3 3 3 4 4 3 3 3 3 3 4 3 4 4 4 4 4 4 4 5 5 5 6 6 5 5 4 4 4 4 3 3 3 3
6 5 3 2 2 1 1 2 2 2 3 3 3 3 2 2 1 1 1 1 2 2 1 1 2 2 2 2 2 1 1 1 0 0 0 1 1 2 2 3 3 3 2 2 2 2 2 2 2 2 3 4 4 3 4 4 4 4 3 3 3 3 3 3 4 4 4 4 4 5 5 5 5 5 5 4 4 3 3 3 3 2 1 2 2
6 6 5 3 2 2 2 2 2 2 3 2 2 2 1 1 1 0 0 0 1 1 1 1 2 2 2 2 2 2 2 2 2 2 1 1 1 2 2 2 2 2 2 2 2 2 2 1 1 1 1 3 4 4 4 4 4 4 4 4 4 4 4 4 4 5 5 4 5 5 4 4 4 4 4 4 3 3 3 3 3 1 1 1 1
7 7 6 5 4 3 2 2 2 0 2 2 2 2 1 1 0 1 1 1 1 1 1 1 3 3 2 1 2 2 2 2 3 3 2 1 1 2 1 2 2 2 2 2 1 1 1 1 1 1 2 2 3 4 4 3 4 4 4 5 6 5 5 4 3 4 4 4 5 4 2 2 3 3 3 3 3 3 3 2 2 1 1 1 0
8 7 7 6 5 4 3 3 3 1 1 1 1 1 1 0 1 1 1 1 2 1 1 1 1 2 2 1 1 1 1 2 3 3 2 1 1 1 1 1 1 1 1 1 1 0 0 1 1 1 2 3 3 3 3 3 5 6 5 5 6 6 6 5 4 4 4 4 4 3 2 2 3 3 3 3 2 2 1 1 0 0 1 1 1
8 8 7 7 6 5 4 3 3 2 1 2 1 1 1 1 2 2 0 1 3 2 1 0 0 1 1 0 1 1 1 1 1 1 2 1 1 0 1 1 1 1 1 1 1 0 0 0 0 1 2 3 3 4 4 4 5 6 6 5 5 5 5 5 5 5 4 5 6 4 3 4 4 3 3 2 2 2 2 2 2 2 2 3 3
9 8 8 8 7 6 5 4 3 3 2 2 2 1 1 1 2 2 2 1 1 3 2 1 1 1 1 1 2 1 3 4 3 1 1 0 0 1 2 1 2 2 2 1 1 1 1 1 1 2 2 2 3 3 4 4 4 5 5 6 5 5 6 6 6 6 5 6 6 4 4 5 5 4 4 3 3 3 3 3 3 4 4 4 4
9 9 9 8 8 7 6 5 4 3 3 3 2 2 1 0 1 3 3 1 0 1 3 2 1 0 1 1 2 2 4 5 3 2 2 2 1 1 2 2 2 3 2 2 2 2 1 1 2 2 3 3 3 3 3 4 5 4 4 6 7 7 7 7 6 6 6 7 7 6 6 6 6 6 5 5 5 5 5 5 5 5 5 5 6
10 9 9 9 8 7 6 5 5 4 4 4 4 3 2 1 2 3 3 3 2 1 2 3 2 2 2 1 2 3 4 4 3 2 2 2 2 1 2 2 2 3 3 3 3 2 1 2 2 2 2 3 3 3 3 4 5 5 5 7 8 7 7 7 7 7 7 7 7 7 7 7 7 7 7 7 7 7 7 7 7 7 7 7 7
10 10 10 10 9 8 7 6 5 5 5 5 5 4 3 2 3 3 2 4 4 2 2 2 1 2 2 2 2 3 3 3 3 4 3 2 1 1 1 1 2 3 2 2 2 1 1 2 3 3 3 3 3 3 3 3 4 5 6 7 7 8 8 7 7 8 8 8 9 8 8 8 9 8 9 9 9 9 9 9 8 8 8 8 8
11 11 10 10 10 9 8 7 7 6 5 5 5 5 5 4 3 3 3 3 4 3 3 2 3 2 0 1 3 3 3 3 3 3 3 2 1 1 1 1 1 1 2 3 2 2 3 3 3 4 4 3 4 4 4 4 4 4 5 7 7 8 8 8 8 8 9 9 10 10 10 10 10 10 10 10 10 10 10 10 10 10 10 9 9
12 12 12 11 11 10 9 9 8 7 6 6 6 6 6 5 4 4 3 3 4 5 4 3 3 2 1 1 3 3 3 2 3 3 2 2 2 3 2 1 1 1 1 3 3 4 5 4 5 5 4 4 4 4 4 5 5 4 6 8 7 8 8 8 8 9 9 10 10 11 11 11 11 11 11 11 11 11 11 11 11 11 11 11 10
12 13 14 13 12 11 11 10 9 8 7 7 7 7 6 6 5 5 4 4 4 5 5 4 4 3 3 3 4 4 4 3 3 3 3 3 3 4 4 4 4 3 3 3 4 6 6 5 5 5 4 5 5 6 6 6 7 7 8 8 8 8 9 9 9 9 10 11 12 12 13 13 13 13 13 13 13 12 12 12 12 12 12 12 12
13 13 14 14 13 12 11 10 10 9 9 8 8 8 7 6 6 5 5 5 5 5 5 6 5 5 4 4 4 5 4 4 4 3 3 4 4 5 6 5 5 5 4 4 5 6 5 5 5 4 4 5 6 6 8 8 9 10 10 10 10 10 10 10 10 11 11 12 13 14 15 15 16 16 16 15 15 14 14 14 13 14 14 14 14
15 14 13 14 14 13 12 12 11 11 10 9 8 8 8 7 7 6 6 6 6 6 6 6 6 6 5 4 4 4 4 4 4 4 4 3 4 5 6 6 6 6 5 5 5 5 4 3 3 3 4 5 5 7 8 9 10 12 12 12 13 12 12 13 13 13 13 14 15 16 17 17 18 18 18 18 17 17 16 16 16 16 16 16 16
16 15 14 14 14 13 13 13 12 12 11 11 9 8 8 8 8 8 7 7 7 7 6 6 6 6 5 5 4 4 4 4 4 4 5 4 5 5 6 6 7 7 6 5 5 5 3 1 1 2 3 4 5 6 8 8 9 13 14 13 15 16 16 16 16 16 17 17 17 18 18 19 19 20 20 20 20 20 19 19 19 18 18 18 18
16 15 14 15 14 13 13 13 13 13 13 12 11 9 9 9 8 9 8 7 8 8 7 7 7 6 6 6 5 5 4 5 4 4 5 5 5 5 5 5 6 6 6 5 5 4 3 2 1 1 1 2 3 4 6 7 9 13 16 15 17 20 20 19 19 20 20 20 21 21 21 21 22 22 22 22 22 22 22 22 22 21 21 21 21
15 15 15 16 15 14 14 14 14 14 14 13 12 10 9 9 9 9 9 8 8 9 8 7 7 7 7 7 6 6 5 5 5 5 5 5 5 4 5 5 5 5 5 5 5 3 2 2 1 2 2 2 2 3 6 8 8 11 14 16 18 20 21 21 21 21 23 24 24 25 25 25 25 25 25 25 25 25 25 25 24 24 24 24 23
15 15 16 16 16 16 15 14 14 14 14 14 13 12 10 10 9 10 10 9 9 9 9 8 8 8 8 8 7 7 6 6 6 5 5 5 5 5 5 5 5 5 4 4 5 5 5 4 3 3 4 5 5 7 9 9 10 11 12 14 16 17 20 22 22 22 24 25 26 28 28 29 29 29 29 29 29 29 28 28 28 27 27 27 26
16 15 15 16 17 17 16 16 15 15 15 14 14 13 12 11 10 10 10 10 10 10 9 9 9 8 8 8 8 8 7 7 7 6 5 5 5 5 5 5 5 5 6 5 5 6 7 6 6 5 6 7 8 9 10 10 12 14 12 12 15 16 18 22 23 24 25 26 27 28 30 31 32 32 33 33 33 32 32 32 31 31 31 31 30
17 16 16 16 16 17 17 17 16 16 16 15 14 14 13 12 11 10 10 10 11 11 10 10 9 9 9 9 9 8 7 7 7 6 6 6 5 6 6 6 7 7 7 7 6 7 7 8 9 9 9 10 10 11 11 11 13 16 15 14 16 17 18 21 23 24 25 26 27 28 29 31 32 33 34 35 35 36 36 36 35 35 34 34 34
18 18 17 17 16 17 17 17 17 17 16 16 15 15 14 13 12 11 10 11 11 11 11 11 10 9 10 10 10 9 8 8 8 7 8 7 7 7 7 7 8 8 9 9 9 10 11 11 12 12 12 12 13 13 13 13 13 16 18 18 19 19 20 21 23 24 25 26 27 28 29 31 32 33 34 35 36 37 38 38 39 39 38 37 36
18 18 18 18 17 17 17 17 17 17 16 16 16 15 15 15 14 12 11 11 12 12 11 12 11 11 11 11 11 11 10 10 9 9 9 8 8 8 8 9 9 9 10 11 11 12 12 12 13 13 13 13 14 13 13 14 13 13 16 18 20 20 20 21 22 24 26 28 28 28 29 30 31 32 33 34 36 37 38 39 40 41 42 41 40
19 19 18 18 18 18 17 17 17 17 16 17 16 16 16 16 15 14 13 13 13 12 12 12 13 12 12 12 12 12 11 11 11 10 10 9 9 9 9 9 9 10 10 11 12 13 13 13 13 14 13 13 14 13 13 14 14 14 16 18 19 19 20 22 23 25 27 29 30 31 31 31 31 32 33 34 35 37 38 39 40 42 43 43 43
20 20 19 18 18 18 18 17 17 17 17 17 17 17 17 17 17 16 14 14 14 14 13 13 13 13 13 13 13 12 11 11 12 11 11 10 10 10 10 10 10 11 11 12 13 14 15 14 12 13 14 13 14 15 15 16 16 16 18 19 19 19 21 23 25 28 29 30 31 32 33 33 33 33 34 35 35 36 37 39 40 42 43 44 45
20 20 20 19 19 19 19 19 18 18 18 18 17 17 17 17 17 17 15 15 15 15 14 13 13 13 13 13 13 12 11 12 12 11 11 11 10 10 10 11 11 12 11 12 13 14 15 14 13 13 14 14 15 15 15 15 16 17 19 21 21 22 24 25 26 28 29 30 31 32 33 33 34 34 34 34 34 35 36 38 40 42 43 44 44
21 20 20 20 20 20 20 20 19 19 19 18 18 17 17 17 17 17 16 16 16 15 15 14 13 13 13 13 13 12 12 12 12 11 11 11 10 10 10 10 10 11 11 11 13 14 15 16 15 14 14 14 15 15 15 15 15 16 18 20 22 24 28 28 26 26 28 29 30 29 30 31 32 34 35 35 35 35 35 36 38 40 41 43 44
22 21 20 21 22 22 22 20 20 20 19 19 19 18 17 17 17 17 16 16 16 16 16 15 15 14 14 14 13 13 13 13 13 12 11 11 11 11 11 11 11 11 11 12 12 13 15 16 16 15 14 14 14 14 13 13 15 16 18 20 22 24 28 29 27 26 26 28 30 30 30 29 31 33 36 38 38 37 35 35 35 35 37 39 41
24 23 22 22 22 23 23 21 20 20 20 20 19 19 19 18 17 17 16 16 16 16 16 16 16 16 15 15 14 14 15 15 14 13 12 11 12 12 12 11 11 11 11 12 12 13 14 15 15 14 13 13 14 14 14 14 16 17 18 21 23 24 27 31 31 30 28 29 35 39 36 31 31 33 35 37 38 36 35 35 36 35 34 34 36
24 24 23 23 22 22 22 22 21 20 20 20 20 20 20 19 18 17 17 17 16 16 16 16 16 16 16 16 16 16 16 16 15 14 12 11 11 11 12 11 10 10 11 11 11 12 13 13 14 14 14 14 14 16 16 16 16 16 16 19 22 24 28 32 31 28 29 32 36 39 36 28 25 28 30 33 34 32 32 34 35 36 35 34 34
24 24 24 23 22 22 21 21 21 20 20 20 21 21 21 20 19 18 17 17 17 17 16 16 16 17 17 17 17 17 16 17 18 17 15 14 13 12 12 11 11 11 11 12 12 13 14 14 14 15 15 15 15 16 17 17 18 18 17 19 22 26 28 30 28 26 27 30 32 33 31 25 23 26 27 28 29 28 29 32 34 36 36 34 33
23 23 24 23 23 22 21 21 21 21 21 21 22 24 23 21 19 18 18 17 17 17 17 17 17 17 18 18 18 17 18 20 22 22 21 20 18 17 16 15 13 13 13 13 14 15 15 15 15 15 15 16 16 16 18 20 19 16 16 20 22 23 25 27 29 27 23 24 27 28 27 26 26 29 28 27 27 26 27 30 31 34 36 36 34
23 23 23 24 23 22 22 22 22 22 22 22 24 27 27 25 21 18 17 18 17 17 18 18 18 18 18 18 17 17 18 20 23 24 23 22 20 20 19 18 17 17 16 16 15 15 15 16 16 15 15 16 16 17 19 21 20 17 20 24 24 22 22 24 27 27 23 23 26 27 30 31 29 29 30 28 27 27 28 29 31 33 36 37 38
24 23 23 24 24 23 22 22 22 23 23 23 26 28 28 28 25 21 18 17 17 18 18 18 18 18 18 18 17 17 17 18 19 19 19 20 20 19 19 18 18 19 19 20 19 18 18 17 16 16 16 17 17 17 18 21 25 27 26 23 19 19 21 22 24 28 29 29 30 29 32 33 27 26 30 30 28 29 31 33 35 36 37 38 40
23 23 23 23 23 23 22 22 22 23 22 23 27 29 29 28 28 25 21 18 18 18 18 18 18 17 17 17 17 17 16 17 18 17 17 18 19 19 19 18 18 18 18 18 19 20 20 19 18 17 17 18 18 17 18 22 29 34 30 23 18 19 24 26 28 33 33 32 31 29 31 33 28 26 31 31 30 32 33 34 36 37 39 39 39
23 23 24 23 23 23 23 23 23 22 21 22 26 28 29 28 28 27 25 21 19 19 18 18 18 17 17 17 16 17 16 16 16 16 17 16 16 16 16 16 16 16 16 15 15 15 17 18 19 18 17 18 18 17 16 18 26 32 32 28 24 25 29 31 31 33 33 31 29 26 29 33 29 27 31 31 30 32 32 32 35 37 38 39 39
24 23 24 24 23 23 24 23 23 22 22 24 25 27 28 28 27 27 27 23 21 20 20 19 19 18 18 18 17 17 17 16 17 17 16 14 13 13 14 15 15 15 15 15 14 13 14 16 17 18 17 16 16 16 15 16 23 30 31 30 29 28 29 30 28 27 27 28 26 22 26 32 30 28 31 31 30 32 32 32 34 36 36 37 38
23 22 23 23 23 24 24 24 24 23 23 25 27 28 28 27 26 27 27 24 21 21 20 20 20 20 19 19 18 18 18 17 18 19 19 16 14 14 15 16 16 15 15 15 14 14 15 16 16 17 18 18 18 20 20 19 23 26 25 26 26 24 22 24 25 24 23 23 22 22 27 33 31 29 32 32 32 34 33 32 33 33 34 35 36
22 22 23 23 23 24 25 25 25 24 24 25 27 29 29 28 27 27 27 23 21 22 21 20 20 20 20 21 20 19 19 19 19 20 20 19 17 16 17 17 17 17 15 14 15 16 16 15 15 15 17 18 19 19 17 15 16 16 17 20 21 19 19 20 21 23 25 24 24 23 26 31 31 30 32 33 33 33 33 31 31 31 31 32 34
23 23 22 22 23 24 25 25 25 24 23 24 26 28 28 29 28 27 24 22 21 21 21 20 20 20 21 23 23 22 20 19 19 18 19 19 17 16 17 17 17 17 16 15 14 13 11 10 10 12 15 18 17 15 12 10 9 9 13 16 16 17 19 19 21 25 27 25 24 22 22 27 29 29 30 31 30 30 29 27 27 27 27 27 29
24 23 22 21 22 22 23 24 25 25 23 23 25 27 28 28 29 27 23 21 21 21 20 20 20 20 21 22 25 27 26 23 21 19 19 19 17 16 16 17 17 17 15 13 11 9 8 10 13 16 17 16 14 11 10 9 9 9 12 14 15 16 18 20 22 22 20 20 21 20 21 26 28 28 28 26 21 21 23 24 25 26 25 26 28
Wind_Direction
127 119 111 105 98 98 94 86 77 77 81 80 89 104 110 113 117 117 115 117 120 120 123 128 126 120 119 115 119 123 120 121 120 125 131 129 132 132 129 126 123 121 117 116 115 112 108 113 119 122 120 111 103 96 93 92 90 89 87 90 83 70 52 31 24 15 8 2 358 349 342 342 346 346 343 340 336 336 339 339 340 342 343 342 340
126 120 112 105 101 94 83 87 82 70 68 73 79 88 96 104 111 111 111 118 120 123 130 132 129 127 128 126 126 129 129 131 128 128 130 130 134 136 134 133 134 132 132 129 123 122 116 123 135 135 134 128 120 116 112 107 99 84 63 7 316 341 343 348 349 349 348 342 341 337 330 327 327 326 326 326 327 329 330 332 336 336 337 336 336
124 121 117 109 101 93 79 79 80 71 63 70 73 76 88 99 103 102 104 112 117 124 131 129 129 130 131 133 131 132 133 133 132 129 125 126 133 136 138 138 140 148 156 152 142 137 132 137 145 144 143 133 136 147 148 159 187 256 284 295 301 304 307 311 312 317 318 316 316 318 317 315 314 314 315 318 319 323 325 327 330 331 332 333 334
124 118 118 111 96 90 81 70 67 66 60 65 77 84 96 109 116 118 117 117 118 125 128 126 128 129 130 130 126 126 128 132 133 125 118 121 129 137 141 143 149 157 162 164 169 163 152 156 163 159 152 137 144 147 176 245 294 286 291 304 308 309 307 307 306 306 304 306 309 308 309 311 312 311 311 313 314 317 321 323 325 327 328 330 333
127 121 119 111 98 87 77 71 62 59 63 72 86 92 101 119 135 137 130 125 122 126 128 124 121 122 123 121 119 118 121 126 126 123 121 121 127 136 142 149 157 160 160 164 181 191 184 182 187 185 172 165 176 174 245 301 305 299 308 302 306 312 315 315 312 310 308 310 311 307 307 309 311 311 311 313 312 313 317 320 322 323 324 327 329
144 139 124 110 104 90 74 72 64 59 64 69 75 84 93 114 136 138 130 125 120 118 119 118 118 119 117 114 112 112 114 113 111 119 118 120 128 134 140 146 152 159 166 176 193 196 200 206 209 217 212 212 235 254 264 272 271 277 285 280 288 299 304 311 311 312 312 313 312 311 312 310 311 313 314 314 313 314 316 318 321 323 326 328 331
160 150 131 118 105 93 81 74 69 64 63 62 60 69 77 98 126 130 123 119 117 115 114 114 118 118 115 112 108 105 105 99 97 108 111 120 130 136 145 146 149 154 163 193 216 200 195 207 222 235 234 241 248 254 263 265 269 272 273 278 286 289 291 294 299 303 306 310 313 312 314 312 312 315 318 318 316 317 318 319 321 324 328 329 331
168 159 142 121 98 90 89 83 75 67 64 62 56 54 56 78 106 111 100 99 111 117 118 119 120 119 118 114 106 100 95 92 92 95 98 114 130 142 154 150 160 163 166 190 228 236 224 189 226 252 253 266 269 264 264 265 274 274 274 284 289 289 289 289 295 297 296 301 306 308 311 312 315 317 321 321 317 316 317 317 319 322 325 327 329
180 179 165 132 108 97 97 97 82 71 65 58 52 45 40 59 89 103 90 74 83 100 110 120 123 127 130 118 106 100 91 86 88 88 92 110 130 146 156 162 181 191 179 187 182 218 267 275 253 270 268 271 276 277 271 268 275 275 277 286 290 291 292 292 298 298 293 296 301 306 308 310 314 315 319 320 312 309 308 311 319 324 325 329 334
193 192 186 156 118 109 108 103 87 76 67 51 45 38 34 55 85 95 71 56 51 62 91 112 122 132 133 121 110 101 93 90 90 92 103 117 130 146 160 170 186 194 185 194 181 183 227 270 293 293 279 273 280 281 275 269 272 276 280 284 286 290 293 295 299 300 297 298 304 307 306 308 309 312 319 317 308 305 307 314 324 328 326 330 337
200 196 196 179 136 132 121 103 95 87 68 48 45 38 25 21 61 84 56 57 61 49 73 113 129 128 125 122 123 118 111 107 104 100 101 121 150 165 175 177 182 193 189 191 186 178 197 218 233 243 255 274 284 274 271 271 271 274 279 281 287 293 295 294 292 297 300 304 307 303 301 306 307 312 321 321 317 319 326 330 329 329 332 335 338
201 199 196 192 168 144 126 106 100 85 64 52 49 43 20 355 10 82 58 70 80 67 77 129 134 120 135 142 149 182 182 173 187 162 134 141 165 175 179 177 177 185 188 188 190 190 198 206 219 222 244 275 287 285 278 277 278 279 279 278 281 283 283 281 283 287 292 298 297 295 305 314 311 316 326 334 338 345 351 343 340 349 1 352 349
204 202 198 201 198 170 147 132 122 86 64 57 53 53 17 333 332 57 94 93 82 97 93 146 176 170 179 176 190 226 217 224 247 237 215 184 179 188 181 181 181 179 185 188 189 200 208 210 244 266 265 276 291 298 294 291 284 275 274 272 268 267 267 272 281 286 290 291 287 296 317 321 318 322 330 340 346 349 352 349 355 28 51 16 12
207 207 205 209 210 203 194 165 162 123 54 63 62 71 35 334 123 127 128 120 65 55 67 187 207 172 147 179 183 196 229 248 251 239 217 196 187 188 189 197 188 177 181 177 185 211 226 236 269 303 302 297 299 292 290 292 279 275 280 280 274 268 262 260 264 278 292 289 284 300 326 314 316 323 323 332 339 342 352 354 8 38 60 65 69
210 210 208 210 211 211 213 188 188 251 1 91 96 93 71 296 192 153 94 138 147 78 57 198 224 117 114 193 161 149 191 230 239 242 224 222 260 203 182 226 189 170 182 161 178 228 317 316 311 308 301 298 295 287 283 274 273 282 285 282 280 272 263 252 242 255 275 274 275 291 304 295 302 308 311 321 322 322 326 315 301 241 227 211 214
210 210 208 208 209 210 220 212 198 220 210 147 165 182 170 213 212 201 147 159 148 138 141 155 2 54 134 117 55 77 87 107 141 214 226 200 258 203 128 204 176 167 213 169 178 238 229 269 283 285 284 281 279 281 280 275 285 293 285 277 280 283 277 263 251 246 243 252 265 275 277 286 294 293 294 295 289 278 253 238 227 232 233 229 232
209 209 207 207 210 212 216 220 217 219 211 201 220 207 187 203 204 197 205 220 121 129 154 179 109 78 17 16 27 50 34 25 46 52 311 296 245 111 112 204 179 167 226 224 212 285 288 263 249 256 266 273 274 274 272 273 283 290 284 278 284 293 291 279 265 255 244 249 263 272 274 282 287 284 282 277 271 260 250 243 237 239 236 234 236
210 209 208 209 213 215 213 215 220 222 220 225 235 223 215 238 159 188 199 209 164 131 164 178 156 171 281 348 340 353 16 8 17 44 6 348 307 187 157 190 173 168 218 238 233 239 267 272 257 262 267 273 276 278 274 265 262 260 253 263 279 291 289 282 270 262 258 260 265 271 276 281 279 277 277 271 266 261 254 250 246 244 241 238 238
211 210 211 211 212 215 215 215 213 214 214 217 227 234 239 233 193 195 186 173 181 214 201 174 166 236 254 262 306 345 5 355 349 14 20 1 327 262 201 181 189 202 213 236 239 214 223 274 271 267 264 268 269 273 280 268 270 275 262 262 276 287 286 282 275 266 264 263 263 266 270 273 273 273 271 267 263 259 255 254 252 249 245 242 240
211 211 213 213 214 216 216 216 216 213 209 213 220 225 225 224 217 199 170 171 179 211 242 219 208 216 229 270 293 336 337 327 329 332 329 347 6 250 201 194 244 245 232 255 265 260 257 262 281 287 274 268 263 268 277 269 272 281 282 286 285 281 282 281 275 268 262 259 259 261 262 265 267 266 264 262 259 256 255 254 253 251 248 243 241
214 215 216 215 215 216 216 216 217 213 211 216 218 218 221 225 226 208 181 183 186 199 225 252 271 272 91 282 291 305 298 297 292 281 295 328 350 38 121 182 267 292 285 285 295 297 283 267 277 283 274 267 260 262 264 266 275 272 283 303 297 280 279 276 271 266 259 256 254 255 257 258 260 261 262 260 258 257 256 255 253 252 248 244 242
217 218 218 217 216 216 217 216 217 216 213 216 217 216 221 224 226 220 200 192 190 197 209 219 246 282 318 275 275 280 282 291 276 263 290 308 304 313 315 316 339 348 307 305 313 303 293 282 276 275 272 269 262 260 255 254 265 265 282 305 304 289 284 278 272 266 259 257 256 256 258 259 260 261 262 261 260 258 256 255 255 253 250 246 243
221 220 218 217 217 217 218 218 218 218 215 216 218 216 216 216 215 215 211 208 202 199 210 217 221 240 251 244 248 265 277 289 296 314 322 310 313 313 320 345 346 335 328 314 301 292 287 280 278 279 280 277 267 261 252 246 258 271 281 292 295 291 288 284 278 273 267 263 261 261 261 262 262 261 261 261 261 260 258 257 256 255 252 249 246
219 220 218 215 216 218 219 220 220 221 219 217 218 217 216 210 204 208 210 211 211 206 209 218 223 230 242 243 244 258 270 280 293 306 305 317 327 310 319 343 333 323 332 319 300 295 289 280 280 281 278 275 267 256 248 243 254 269 274 274 277 280 279 279 277 273 271 268 266 265 263 263 262 262 262 261 261 261 260 259 258 256 254 252 250
216 219 218 214 214 217 219 220 221 223 223 222 220 219 218 213 205 207 210 210 211 213 213 218 224 231 246 256 257 265 270 272 282 287 288 296 295 294 316 333 321 319 328 318 311 311 297 277 277 285 281 272 265 256 252 249 251 264 270 268 269 271 269 270 271 270 269 268 266 265 265 264 263 262 262 262 262 261 261 260 258 256 254 253 252
213 216 217 214 214 217 219 221 224 228 230 230 227 223 221 218 215 212 213 214 212 213 217 219 222 229 240 252 263 270 271 272 270 272 280 282 284 299 320 322 313 315 320 313 308 309 310 308 279 283 283 272 267 257 256 257 254 262 270 267 267 271 270 267 267 268 267 267 266 266 265 264 263 262 261 261 260 259 259 259 258 256 255 253 252
211 212 213 213 213 215 219 221 225 230 234 233 229 227 225 222 221 220 218 217 215 216 217 218 221 225 230 241 257 264 264 271 271 270 281 286 294 310 316 312 311 314 320 322 310 298 303 314 273 253 266 264 258 252 262 267 255 261 271 270 267 270 273 273 270 270 269 268 268 267 266 265 264 263 261 261 260 259 258 258 258 257 256 255 254
209 208 209 211 211 214 218 221 224 228 233 233 229 226 226 225 223 223 223 221 218 218 218 220 222 226 229 234 246 258 261 264 270 275 282 284 289 299 298 297 304 313 320 322 319 320 322 305 229 189 217 247 242 256 285 287 272 272 277 276 272 271 273 276 274 272 271 270 270 269 268 267 265 264 263 261 261 260 259 258 258 257 257 256 255
208 207 207 209 211 214 217 219 221 225 229 231 229 225 224 225 224 223 225 224 222 222 222 224 224 224 230 231 235 248 253 253 259 265 269 271 271 270 270 276 286 298 309 313 313 318 319 310 286 237 249 265 264 271 283 279 275 283 282 274 273 272 273 278 279 276 273 270 268 268 268 267 266 265 263 262 261 260 260 259 259 258 257 255 254
208 208 209 210 212 215 218 219 219 221 224 226 227 225 224 225 225 223 225 224 223 225 225 225 228 225 227 229 232 240 243 243 246 250 251 252 253 252 252 256 259 267 284 295 297 301 303 301 297 286 278 275 272 277 282 274 278 291 289 273 271 272 272 276 278 277 273 270 267 266 265 266 265 265 264 262 261 260 259 258 258 257 256 255 253
206 206 208 210 212 215 218 220 220 221 222 223 224 223 222 225 226 226 223 220 222 227 228 228 229 227 226 228 232 237 241 242 244 245 243 240 243 245 242 244 246 249 262 273 279 285 290 293 294 292 287 281 279 282 284 281 282 290 291 282 279 282 281 278 278 276 273 270 269 267 266 265 264 263 263 262 261 260 259 258 257 257 256 255 255
205 206 208 211 214 216 219 220 222 222 223 223 223 222 222 223 226 228 224 219 221 227 231 231 231 229 227 228 232 236 239 240 242 244 241 238 238 238 236 238 241 241 245 254 263 273 279 283 286 287 286 286 285 282 282 284 283 286 292 293 291 290 286 280 279 280 280 277 273 269 267 265 264 264 263 263 263 262 261 260 259 258 257 256 256
204 206 209 211 213 215 218 220 221 223 223 223 222 221 222 222 223 226 226 222 223 228 231 232 232 231 229 229 233 236 236 237 240 243 244 241 237 236 235 235 239 240 237 242 257 271 276 277 279 282 285 287 286 281 280 283 282 280 284 288 288 286 281 275 274 275 280 283 282 277 273 270 268 267 266 266 265 265 264 262 261 260 258 257 257
204 206 209 211 212 213 216 218 219 221 221 222 223 222 223 223 222 223 224 222 223 226 230 231 230 230 231 232 234 236 236 237 238 242 246 246 243 241 239 237 242 245 238 239 253 269 277 278 277 280 282 282 282 281 277 278 280 278 275 277 278 276 274 273 273 274 277 280 282 283 282 280 279 277 274 272 269 268 267 266 265 263 261 258 257
204 206 208 208 208 210 212 215 216 217 219 220 223 224 223 223 222 223 223 222 221 223 227 230 230 230 231 233 236 237 237 236 237 241 245 245 245 247 245 243 248 251 248 244 250 263 275 281 280 281 283 282 280 280 277 275 276 277 278 281 279 273 272 273 273 277 279 280 282 285 286 287 287 285 283 280 276 272 270 268 265 264 263 261 259
203 204 206 206 206 206 210 213 213 214 217 218 221 223 223 222 222 224 224 223 224 225 228 230 231 231 231 234 237 238 236 236 238 241 243 243 242 243 247 247 247 251 253 250 252 262 276 284 283 283 287 287 284 284 284 280 278 274 275 281 283 283 286 284 279 279 282 284 286 287 287 287 286 286 286 283 280 277 273 271 268 266 266 265 263
203 203 203 204 205 206 209 211 212 213 215 216 218 220 222 222 223 224 225 225 226 228 230 232 231 232 233 235 237 236 234 235 238 241 243 242 241 242 248 250 250 254 258 260 261 266 274 282 286 286 286 286 286 289 290 289 287 282 277 279 282 287 293 293 287 284 288 290 289 288 287 287 288 289 289 287 285 282 279 277 274 271 269 268 266
203 203 202 203 205 207 210 211 211 213 214 214 216 218 220 221 222 224 225 225 227 229 232 232 232 232 233 233 234 233 233 235 238 241 240 239 240 242 246 249 251 256 260 262 263 266 272 278 282 284 285 286 288 291 292 292 294 292 289 287 284 283 290 294 292 291 292 292 291 290 287 287 288 288 288 288 287 285 284 283 280 276 273 271 269
203 204 203 203 206 208 211 212 212 212 212 213 214 215 217 219 220 222 224 225 227 229 232 233 233 234 234 233 232 231 232 234 237 237 235 237 241 243 244 245 247 251 256 259 260 264 270 274 278 282 286 291 294 295 296 296 294 290 288 292 289 284 289 296 299 299 296 293 296 296 293 290 290 289 288 288 288 286 285 285 283 280 276 273 270
203 205 205 204 206 209 211 212 213 212 212 212 212 212 213 215 218 221 222 225 227 229 232 234 234 235 236 236 235 234 234 235 237 234 231 233 239 245 247 245 245 248 253 259 264 267 270 273 278 284 289 293 293 293 295 295 292 287 281 283 284 283 288 295 300 302 299 296 298 300 298 295 292 291 291 291 290 288 286 285 284 280 276 273 271
204 206 207 207 207 209 210 211 211 212 213 213 211 210 209 211 215 219 221 224 227 230 233 235 236 236 237 239 240 239 236 237 241 242 239 238 241 247 249 247 247 251 256 260 265 269 273 275 278 282 286 288 288 290 294 294 292 291 286 281 280 281 288 294 297 299 297 295 296 297 300 303 299 294 292 290 288 286 284 285 285 281 277 275 274
204 205 207 208 209 209 209 209 210 211 214 214 214 213 211 209 211 216 221 224 226 229 232 235 237 237 238 240 243 243 241 243 250 255 256 256 256 257 254 250 248 252 257 261 263 266 270 273 278 282 284 285 289 293 294 293 294 298 297 292 289 291 297 300 300 299 295 295 297 297 299 302 301 298 292 286 285 283 277 277 278 277 276 279 279
203 204 205 208 211 212 210 210 210 212 215 215 216 218 217 215 212 213 219 224 226 228 230 233 236 238 239 241 243 243 243 245 253 261 265 264 263 263 261 258 255 253 254 258 261 265 268 270 275 280 283 287 291 293 293 296 301 308 305 300 299 302 303 302 301 301 299 300 302 300 297 297 296 293 289 284 285 283 276 274 273 272 273 275 277
201 203 205 207 210 212 212 213 213 215 216 216 218 222 223 223 221 217 218 224 227 228 230 232 234 236 238 240 242 242 241 242 246 254 263 267 267 266 266 267 266 262 257 256 257 260 264 270 275 278 282 286 287 290 297 304 306 306 303 298 295 295 295 293 295 297 300 302 303 301 297 295 292 287 284 284 285 283 278 277 276 274 272 271 270
201 202 205 207 209 211 213 215 216 218 219 218 220 224 226 228 227 224 222 224 228 229 230 230 231 233 235 236 239 240 240 241 241 241 248 258 266 270 271 273 273 271 267 262 259 258 258 262 270 273 275 279 282 290 301 305 305 305 305 301 298 296 295 295 294 294 296 300 302 301 297 294 292 286 281 281 282 281 279 279 278 278 276 274 271
201 203 206 207 209 210 212 215 219 221 222 221 223 226 228 229 230 228 225 226 230 231 230 230 231 231 232 233 234 236 237 238 239 239 240 245 253 262 266 269 271 273 275 273 269 264 258 254 257 262 267 273 280 288 295 300 301 302 301 299 300 301 299 297 294 292 292 293 295 296 294 292 292 289 285 285 286 284 284 284 283 281 280 279 277
203 204 206 207 208 210 212 216 219 222 224 224 225 227 229 230 230 228 225 225 229 232 231 230 231 231 232 232 233 236 237 236 236 237 238 239 245 253 257 260 263 265 268 269 269 270 268 263 261 263 267 271 275 279 282 285 291 295 297 297 297 297 297 296 293 290 289 291 290 286 286 290 294 293 291 292 293 291 289 288 286 285 285 284 282
205 204 206 208 209 211 213 216 219 223 225 225 225 227 230 230 229 226 224 223 226 231 231 231 231 231 232 231 232 235 238 238 239 239 240 242 248 256 260 262 264 266 267 266 264 265 269 270 267 265 267 269 272 278 280 277 279 287 295 295 293 290 288 291 293 292 292 295 293 287 285 290 294 293 291 293 294 292 291 291 289 288 288 287 286
205 205 207 209 211 212 214 214 217 221 225 225 226 227 229 229 226 222 220 221 224 229 231 232 232 232 232 231 231 235 237 239 241 242 245 248 251 256 262 267 270 271 270 269 270 271 269 265 261 261 267 274 279 287 293 286 277 277 278 278 282 285 286 289 294 297 301 302 301 296 289 289 293 294 293 294 293 291 292 294 293 291 289 287 285
207 207 208 210 212 213 215 215 216 220 225 226 226 227 228 228 225 220 216 218 223 227 231 233 233 234 235 233 231 233 235 239 241 242 247 251 250 253 261 268 270 271 272 273 275 277 273 268 273 282 290 297 302 306 307 301 295 280 261 262 278 290 291 292 297 302 303 302 304 305 297 294 299 303 303 302 298 295 298 301 303 304 301 295 290
209 209 209 211 213 214 215 217 218 220 224 226 226 227 227 227 225 219 214 217 223 226 228 231 232 233 235 236 236 236 237 238 239 242 247 250 249 251 259 266 267 269 273 276 279 282 282 287 295 299 302 306 310 308 301 300 304 283 257 263 285 294 294 297 300 301 301 302 312 322 315 305 307 310 312 312 306 302 308 313 314 315 314 311 306